Lakeville, MN

3:34 PM CDT on September 28, 2016 (GMT -0500)
Airlake

Weather History for KLVN - June, 2012

Change the Weather History Date:

Sunday, June 24, 2012

  Actual Average Record
Temperature  
Mean Temperature 71 °F -  
Max Temperature 82 °F 80 °F 98 °F (1988)
Min Temperature 60 °F 58 °F 45 °F (1972)
Cooling Degree Days 6    
Growing Degree Days 21 (Base 50)    
Moisture  
Dew Point 63 °F    
Average Humidity 76    
Maximum Humidity 100    
Minimum Humidity 54    
Precipitation  
Precipitation 0.00 in - - ()
Sea Level Pressure  
Sea Level Pressure 29.99 in    
Wind  
Wind Speed 3 mph (NE)    
Max Wind Speed 12 mph    
Max Gust Speed 18 mph    
Visibility 10 miles    
Events      
Averages and records for this station are not official NWS values.
T = Trace of Precipitation, MM = Missing Value Source: NWS Daily Summary

Daily Weather History Graph

Daily Weather History Graph

Search for Another Location

Airport or City:

Trip Planner

Search our weather history database for the weather conditions in past years. The results will help you decide how hot, cold, wet, or windy it might be!

Date:

Astronomy

Jun. 24, 2012 Rise Set
Actual Time 5:28 AM CDT 9:02 PM CDT
Civil Twilight 4:51 AM CDT 9:39 PM CDT
Nautical Twilight 4:02 AM CDT 10:28 PM CDT
Astronomical Twilight 2:58 AM CDT 11:32 PM CDT
Moon 10:47 AM CDT (6/24) 11:46 PM CDT (6/24)
Length of Visible Light 16h 47m
Length of Day
15h 33m
Waxing Crescent, 25% of the Moon is Illuminated
Jun 24
Waxing Crescent
Jun 26
First Quarter
Jul 3
Full
Jul 10
Last Quarter
Jul 18
New

Hourly Weather History & Observations

Time (CDT) Temp. Heat Index Dew Point Humidity Pressure Visibility Wind Dir Wind Speed Gust Speed Precip Events Conditions
12:11 AM 64.4 °F - 62.6 °F 94% 29.93 in 10.0 mi Calm Calm - N/A   Clear
12:32 AM 64.4 °F - 62.6 °F 94% 29.93 in 10.0 mi SSE 3.5 mph - N/A   Clear
12:52 AM 64.4 °F - 62.6 °F 94% 29.93 in 10.0 mi South 3.5 mph - N/A   Clear
1:11 AM 64.4 °F - 62.6 °F 94% 29.93 in 10.0 mi Calm Calm - N/A   Clear
1:32 AM 62.6 °F - 60.8 °F 94% 29.93 in 10.0 mi Calm Calm - N/A   Clear
1:52 AM 62.6 °F - 60.8 °F 94% 29.93 in 10.0 mi Calm Calm - N/A   Clear
2:11 AM 62.6 °F - 60.8 °F 94% 29.94 in 10.0 mi Calm Calm - N/A   Clear
2:32 AM 62.6 °F - 62.6 °F 100% 29.95 in 10.0 mi Calm Calm - N/A   Clear
2:52 AM 62.6 °F - 60.8 °F 94% 29.95 in 10.0 mi Calm Calm - N/A   Clear
3:11 AM 62.6 °F - 60.8 °F 94% 29.95 in 10.0 mi Calm Calm - N/A   Clear
3:32 AM 60.8 °F - 60.8 °F 100% 29.96 in 10.0 mi Calm Calm - N/A   Clear
3:51 AM 62.6 °F - 60.8 °F 94% 29.96 in 10.0 mi Calm Calm - N/A   Mostly Cloudy
4:12 AM 62.6 °F - 62.6 °F 100% 29.96 in 10.0 mi Calm Calm - N/A   Overcast
4:32 AM 62.6 °F - 62.6 °F 100% 29.96 in 10.0 mi Calm Calm - N/A   Overcast
4:51 AM 62.6 °F - 62.6 °F 100% 29.96 in 7.0 mi Calm Calm - N/A   Overcast
5:12 AM 62.6 °F - 62.6 °F 100% 29.96 in 7.0 mi Calm Calm - N/A   Mostly Cloudy
5:32 AM 62.6 °F - 62.6 °F 100% 29.96 in 5.0 mi Calm Calm - N/A   Scattered Clouds
5:51 AM 62.6 °F - 60.8 °F 94% 29.96 in 5.0 mi Calm Calm - N/A   Clear
6:12 AM 62.6 °F - 60.8 °F 94% 29.96 in 5.0 mi Calm Calm - N/A   Clear
6:32 AM 62.6 °F - 62.6 °F 100% 29.96 in 10.0 mi Calm Calm - N/A   Clear
6:52 AM 64.4 °F - 62.6 °F 94% 29.96 in 10.0 mi Calm Calm - N/A   Clear
7:11 AM 64.4 °F - 62.6 °F 94% 29.97 in 10.0 mi Calm Calm - N/A   Clear
7:32 AM 66.2 °F - 64.4 °F 94% 29.97 in 10.0 mi Calm Calm - N/A   Clear
7:52 AM 68.0 °F - 64.4 °F 88% 29.97 in 10.0 mi Calm Calm - N/A   Clear
8:11 AM 69.8 °F - 64.4 °F 83% 29.97 in 10.0 mi Calm Calm - N/A   Clear
8:32 AM 71.6 °F - 64.4 °F 78% 29.98 in 10.0 mi Calm Calm - N/A   Clear
8:52 AM 71.6 °F - 66.2 °F 83% 29.98 in 10.0 mi Calm Calm - N/A   Clear
9:11 AM 73.4 °F - 66.2 °F 78% 29.98 in 10.0 mi North 4.6 mph - N/A   Clear
9:32 AM 75.2 °F - 66.2 °F 73% 29.98 in 10.0 mi North 3.5 mph - N/A   Clear
9:52 AM 75.2 °F - 66.2 °F 73% 29.99 in 10.0 mi NNE 4.6 mph - N/A   Clear
10:11 AM 77.0 °F - 66.2 °F 69% 29.99 in 10.0 mi NNE 5.8 mph - N/A   Clear
10:32 AM 77.0 °F - 66.2 °F 69% 29.99 in 10.0 mi Calm Calm - N/A   Clear
10:52 AM 78.8 °F - 68.0 °F 69% 29.99 in 10.0 mi ENE 5.8 mph - N/A   Scattered Clouds
11:11 AM 78.8 °F - 66.2 °F 65% 29.99 in 10.0 mi North 4.6 mph - N/A   Mostly Cloudy
11:32 AM 78.8 °F - 66.2 °F 65% 29.99 in 10.0 mi ENE 5.8 mph - N/A   Mostly Cloudy
11:52 AM 78.8 °F - 66.2 °F 65% 30.00 in 10.0 mi NE 6.9 mph - N/A   Mostly Cloudy
12:11 PM 78.8 °F - 66.2 °F 65% 30.00 in 10.0 mi NE 6.9 mph - N/A   Mostly Cloudy
12:32 PM 78.8 °F - 68.0 °F 69% 30.00 in 10.0 mi ENE 8.1 mph - N/A   Mostly Cloudy
12:52 PM 80.6 °F 82.7 °F 66.2 °F 61% 30.00 in 10.0 mi ENE 4.6 mph - N/A   Mostly Cloudy
1:11 PM 78.8 °F - 66.2 °F 65% 30.00 in 10.0 mi NNE 6.9 mph - N/A   Mostly Cloudy
1:32 PM 80.6 °F 82.7 °F 66.2 °F 61% 30.01 in 10.0 mi NE 9.2 mph - N/A   Mostly Cloudy
1:52 PM 80.6 °F 82.7 °F 66.2 °F 61% 30.00 in 10.0 mi NE 5.8 mph - N/A   Mostly Cloudy
2:12 PM 80.6 °F 82.7 °F 66.2 °F 61% 30.01 in 10.0 mi NE 8.1 mph - N/A   Mostly Cloudy
2:52 PM 80.6 °F 82.7 °F 66.2 °F 61% 30.01 in 10.0 mi NE 11.5 mph - N/A   Mostly Cloudy
3:11 PM 80.6 °F 82.7 °F 66.2 °F 61% 30.01 in 10.0 mi NE 11.5 mph 18.4 mph N/A   Scattered Clouds
3:32 PM 80.6 °F 82.7 °F 66.2 °F 61% 30.02 in 10.0 mi NE 9.2 mph - N/A   Scattered Clouds
3:52 PM 80.6 °F 82.7 °F 66.2 °F 61% 30.02 in 10.0 mi ENE 8.1 mph - N/A   Mostly Cloudy
4:11 PM 80.6 °F 82.3 °F 64.4 °F 58% 30.01 in 10.0 mi NE 10.4 mph - N/A   Scattered Clouds
4:31 PM 82.4 °F 83.9 °F 64.4 °F 54% 30.01 in 10.0 mi NE 9.2 mph - N/A   Scattered Clouds
4:52 PM 80.6 °F 82.3 °F 64.4 °F 58% 30.01 in 10.0 mi NNE 11.5 mph 17.3 mph N/A   Clear
5:12 PM 82.4 °F 83.9 °F 64.4 °F 54% 30.02 in 10.0 mi NE 10.4 mph - N/A   Clear
5:31 PM 80.6 °F 81.8 °F 62.6 °F 54% 30.02 in 10.0 mi ENE 9.2 mph - N/A   Clear
5:52 PM 80.6 °F 81.8 °F 62.6 °F 54% 30.02 in 10.0 mi NNE 9.2 mph - N/A   Scattered Clouds
6:11 PM 80.6 °F 81.8 °F 62.6 °F 54% 30.02 in 7.0 mi NE 9.2 mph - N/A   Clear
6:31 PM 78.8 °F - 62.6 °F 57% 30.02 in 7.0 mi NE 8.1 mph - N/A   Clear
6:52 PM 78.8 °F - 62.6 °F 57% 30.02 in 10.0 mi NE 8.1 mph - N/A   Clear
7:12 PM 77.0 °F - 64.4 °F 65% 30.03 in 7.0 mi ENE 8.1 mph - N/A   Clear
7:31 PM 77.0 °F - 62.6 °F 61% 30.03 in 10.0 mi NE 10.4 mph - N/A   Clear
7:52 PM 75.2 °F - 62.6 °F 65% 30.03 in 10.0 mi ENE 9.2 mph - N/A   Clear
8:12 PM 73.4 °F - 62.6 °F 69% 30.01 in 10.0 mi ENE 6.9 mph - N/A   Clear
8:31 PM 73.4 °F - 62.6 °F 69% 30.03 in 10.0 mi NE 8.1 mph - N/A   Clear
8:52 PM 71.6 °F - 60.8 °F 69% 30.04 in 10.0 mi NE 10.4 mph - N/A   Clear
9:31 PM 69.8 °F - 59.0 °F 68% 30.06 in 10.0 mi NE 11.5 mph 17.3 mph N/A   Clear
9:52 PM 69.8 °F - 59.0 °F 68% 30.07 in 10.0 mi NE 8.1 mph - N/A   Clear
10:12 PM 68.0 °F - 57.2 °F 68% 30.07 in 10.0 mi NE 8.1 mph - N/A   Clear
10:31 PM 68.0 °F - 57.2 °F 68% 30.08 in 10.0 mi NE 9.2 mph - N/A   Clear
10:52 PM 66.2 °F - 57.2 °F 73% 30.08 in 10.0 mi NE 9.2 mph - N/A   Clear
11:32 PM 64.4 °F - 55.4 °F 73% 30.10 in 10.0 mi NE 5.8 mph - N/A   Clear
11:51 PM 64.4 °F - 55.4 °F 73% 30.10 in 10.0 mi NE 5.8 mph - N/A   Clear